When you browse on this site, cookies collect data to enhance your experience and personalize the content and advertising you see.
Visit our Privacy Policy to learn more. By continuing to use the site, you agree to this use of cookies and data.
EN

Hourly Weather Veliko Tarnovo

Today, 12 August, Wednesday

Time Temperature Precipitation Wind Pressure Humidity
00:00 +24°C° 0 mm 1 mps 738 mmHg 49%
01:00 +24°C° 0 mm 1 mps 738 mmHg 51%
02:00 +23°C° 0 mm 1 mps 738 mmHg 51%
03:00 +22°C° 0 mm 1 mps 738 mmHg 53%
04:00 +22°C° 0 mm 1 mps 738 mmHg 54%
05:00 +19°C° 0 mm 0 mps 738 mmHg 56%
06:00 +23°C° 0 mm 1 mps 738 mmHg 52%
07:00 +25°C° 0 mm 1 mps 738 mmHg 48%
08:00 +27°C° 0 mm 1 mps 739 mmHg 44%
09:00 +29°C° 0.1 mm 1 mps 739 mmHg 41%
10:00 +31°C° 0.1 mm 1 mps 739 mmHg 39%
11:00 +32°C° 0.1 mm 1 mps 738 mmHg 36%
12:00 +33°C° 0 mm 1 mps 738 mmHg 35%
13:00 +34°C° 0 mm 2 mps 738 mmHg 34%
14:00 +34°C° 0 mm 2 mps 738 mmHg 33%
15:00 +34°C° 0 mm 2 mps 738 mmHg 34%
16:00 +32°C° 0 mm 2 mps 737 mmHg 35%
17:00 +32°C° 0 mm 2 mps 737 mmHg 36%
18:00 +30°C° 0.3 mm 1 mps 737 mmHg 44%
19:00 +27°C° 0.3 mm 1 mps 738 mmHg 52%
20:00 +25°C° 0.3 mm 1 mps 738 mmHg 60%
21:00 +24°C° 0.1 mm 1 mps 738 mmHg 63%
22:00 +23°C° 0.1 mm 1 mps 738 mmHg 66%
23:00 +23°C° 0.1 mm 1 mps 738 mmHg 69%

Tomorrow, 13 August, Thursday

Time Temperature Precipitation Wind Pressure Humidity
00:00 +22°C° 0.1 mm 1 mps 739 mmHg 72%
01:00 +21°C° 0.1 mm 1 mps 739 mmHg 75%
02:00 +20°C° 0.1 mm 1 mps 739 mmHg 78%
03:00 +20°C° 0 mm 1 mps 739 mmHg 80%
04:00 +20°C° 0 mm 1 mps 739 mmHg 82%
05:00 +19°C° 0 mm 1 mps 739 mmHg 84%
06:00 +21°C° 0 mm 1 mps 739 mmHg 79%
07:00 +22°C° 0 mm 1 mps 740 mmHg 73%
08:00 +24°C° 0 mm 1 mps 740 mmHg 68%
09:00 +26°C° 0.1 mm 1 mps 740 mmHg 60%
10:00 +28°C° 0.1 mm 1 mps 740 mmHg 52%
11:00 +30°C° 0.1 mm 1 mps 740 mmHg 44%
12:00 +31°C° 0.1 mm 1 mps 740 mmHg 41%
13:00 +32°C° 0.1 mm 1 mps 740 mmHg 38%
14:00 +33°C° 0.1 mm 1 mps 739 mmHg 35%
15:00 +32°C° 0 mm 2 mps 739 mmHg 37%
16:00 +31°C° 0 mm 2 mps 739 mmHg 39%
17:00 +30°C° 0 mm 2 mps 739 mmHg 41%
18:00 +29°C° 0 mm 2 mps 739 mmHg 46%
19:00 +27°C° 0 mm 1 mps 739 mmHg 52%
20:00 +25°C° 0 mm 1 mps 739 mmHg 57%
21:00 +24°C° 0 mm 1 mps 739 mmHg 62%
22:00 +23°C° 0 mm 1 mps 739 mmHg 67%
23:00 +22°C° 0 mm 1 mps 739 mmHg 72%

Day after tomorrow, 14 August, Friday

Time Temperature Precipitation Wind Pressure Humidity
00:00 +21°C° 0 mm 1 mps 739 mmHg 76%
01:00 +21°C° 0 mm 1 mps 739 mmHg 81%
02:00 +19°C° 0 mm 2 mps 739 mmHg 85%
03:00 +20°C° 0 mm 1 mps 739 mmHg 86%
04:00 +20°C° 0 mm 1 mps 739 mmHg 86%
05:00 +20°C° 0 mm 1 mps 738 mmHg 87%
06:00 +22°C° 0 mm 1 mps 739 mmHg 78%
07:00 +24°C° 0 mm 1 mps 739 mmHg 68%
08:00 +26°C° 0 mm 1 mps 739 mmHg 58%
09:00 +29°C° 0 mm 1 mps 739 mmHg 50%
10:00 +31°C° 0 mm 1 mps 739 mmHg 41%
11:00 +33°C° 0 mm 1 mps 739 mmHg 32%
12:00 +33°C° 0 mm 1 mps 738 mmHg 31%
13:00 +33°C° 0 mm 1 mps 738 mmHg 30%
14:00 +33°C° 0 mm 1 mps 737 mmHg 30%
15:00 +33°C° 0 mm 1 mps 737 mmHg 31%
16:00 +32°C° 0 mm 2 mps 737 mmHg 33%
17:00 +31°C° 0 mm 2 mps 737 mmHg 34%
18:00 +30°C° 0 mm 2 mps 737 mmHg 39%
19:00 +28°C° 0 mm 2 mps 737 mmHg 43%
20:00 +26°C° 0 mm 2 mps 737 mmHg 48%
21:00 +25°C° 0 mm 2 mps 737 mmHg 50%
22:00 +24°C° 0 mm 2 mps 737 mmHg 53%
23:00 +21°C° 0 mm 3 mps 738 mmHg 55%

15 August, Saturday

Time Temperature Precipitation Wind Pressure Humidity
00:00 +21°C° 0 mm 2 mps 738 mmHg 56%
01:00 +20°C° 0 mm 2 mps 738 mmHg 56%
02:00 +20°C° 0 mm 2 mps 738 mmHg 57%
03:00 +20°C° 0 mm 2 mps 738 mmHg 57%
04:00 +19°C° 0 mm 2 mps 737 mmHg 58%
05:00 +19°C° 0 mm 2 mps 737 mmHg 58%
06:00 +21°C° 0 mm 2 mps 738 mmHg 53%
07:00 +24°C° 0 mm 2 mps 738 mmHg 47%
08:00 +26°C° 0 mm 2 mps 738 mmHg 42%
09:00 +28°C° 0 mm 3 mps 738 mmHg 38%
10:00 +30°C° 0 mm 3 mps 738 mmHg 35%
11:00 +33°C° 0 mm 3 mps 738 mmHg 32%
12:00 +33°C° 0 mm 4 mps 738 mmHg 31%
13:00 +34°C° 0 mm 4 mps 738 mmHg 29%
14:00 +35°C° 0 mm 4 mps 737 mmHg 28%
15:00 +34°C° 0 mm 4 mps 737 mmHg 29%
16:00 +33°C° 0 mm 4 mps 737 mmHg 30%
17:00 +33°C° 0 mm 4 mps 736 mmHg 31%
18:00 +29°C° 0 mm 4 mps 736 mmHg 37%
19:00 +27°C° 0 mm 4 mps 736 mmHg 43%
20:00 +23°C° 0 mm 4 mps 737 mmHg 49%
21:00 +22°C° 0.1 mm 3 mps 737 mmHg 55%
22:00 +21°C° 0.1 mm 3 mps 737 mmHg 60%
23:00 +19°C° 0.1 mm 3 mps 737 mmHg 66%

16 August, Sunday

Time Temperature Precipitation Wind Pressure Humidity
00:00 +19°C° 0 mm 2 mps 738 mmHg 69%
01:00 +19°C° 0 mm 2 mps 738 mmHg 72%
02:00 +18°C° 0 mm 2 mps 738 mmHg 75%
03:00 +19°C° 0 mm 2 mps 738 mmHg 73%
04:00 +19°C° 0 mm 2 mps 738 mmHg 71%
05:00 +19°C° 0 mm 2 mps 738 mmHg 69%
06:00 +21°C° 0 mm 2 mps 738 mmHg 63%
07:00 +23°C° 0 mm 2 mps 738 mmHg 58%
08:00 +25°C° 0 mm 2 mps 739 mmHg 52%
09:00 +26°C° 0 mm 2 mps 739 mmHg 46%
10:00 +28°C° 0 mm 3 mps 739 mmHg 41%
11:00 +30°C° 0 mm 3 mps 740 mmHg 36%
12:00 +30°C° 0 mm 3 mps 739 mmHg 34%
13:00 +31°C° 0 mm 3 mps 739 mmHg 33%
14:00 +31°C° 0 mm 3 mps 739 mmHg 31%
15:00 +31°C° 0 mm 3 mps 739 mmHg 31%
16:00 +31°C° 0 mm 3 mps 738 mmHg 30%
17:00 +32°C° 0 mm 4 mps 738 mmHg 30%
18:00 +28°C° 0 mm 3 mps 738 mmHg 37%
19:00 +26°C° 0 mm 3 mps 739 mmHg 45%
20:00 +22°C° 0 mm 3 mps 739 mmHg 52%
21:00 +21°C° 0 mm 2 mps 739 mmHg 59%
22:00 +20°C° 0 mm 2 mps 739 mmHg 66%
23:00 +19°C° 0 mm 2 mps 740 mmHg 73%

17 August, Monday

Time Temperature Precipitation Wind Pressure Humidity
00:00 +18°C° 0 mm 2 mps 740 mmHg 76%
01:00 +18°C° 0 mm 2 mps 739 mmHg 78%
02:00 +18°C° 0 mm 1 mps 739 mmHg 80%
03:00 +18°C° 0 mm 1 mps 740 mmHg 79%
04:00 +18°C° 0 mm 1 mps 740 mmHg 79%
05:00 +16°C° 0 mm 1 mps 740 mmHg 78%
06:00 +19°C° 0 mm 1 mps 740 mmHg 69%
07:00 +20°C° 0 mm 2 mps 740 mmHg 61%
08:00 +23°C° 0 mm 2 mps 740 mmHg 53%
09:00 +25°C° 0 mm 2 mps 740 mmHg 44%
10:00 +27°C° 0 mm 2 mps 740 mmHg 35%
11:00 +29°C° 0 mm 3 mps 740 mmHg 26%
12:00 +30°C° 0 mm 3 mps 740 mmHg 24%
13:00 +31°C° 0 mm 2 mps 739 mmHg 22%
14:00 +32°C° 0 mm 2 mps 739 mmHg 20%
15:00 +32°C° 0 mm 2 mps 739 mmHg 21%
16:00 +32°C° 0 mm 2 mps 738 mmHg 22%
17:00 +32°C° 0 mm 2 mps 738 mmHg 22%
18:00 +29°C° 0 mm 2 mps 738 mmHg 31%
19:00 +26°C° 0 mm 2 mps 738 mmHg 40%
20:00 +22°C° 0 mm 3 mps 738 mmHg 48%
21:00 +21°C° 0 mm 3 mps 738 mmHg 56%
22:00 +20°C° 0 mm 2 mps 739 mmHg 63%
23:00 +18°C° 0 mm 2 mps 739 mmHg 71%
Show more